Regional Weather Roundup
Issued by NWS

Home | Current Version | Previous Version | Text Only | Print | Product List | Glossary On
Versions: 1 2 3 4 5 6 7 8 9 10 11 12 13 14 15 16 17 18 19 20 21 22 23 24 25 26 27 28 29 30 31 32 33 34 35 36 37 38 39 40 41 42 43 44 45 46 47 48 49 50
000
ASUS43 KLSX 020207
RWRMO

WEATHER SUMMARY FOR MISSOURI
NATIONAL WEATHER SERVICE SPRINGFIELD MO
900 PM CDT WED APR 01 2015

NOTE: "FAIR" INDICATES FEW OR NO CLOUDS BELOW 12,000 FEET WITH NO
       SIGNIFICANT WEATHER AND/OR OBSTRUCTIONS TO VISIBILITY.
       CURRENT SKY AND/OR WEATHER CONDITIONS ARE NOT AVAILABLE FOR
       CHILLICOTHE AND FARMINGTON.

MOZ001>031-035>038-043-044-053-054-020300-
...NORTHERN AND WESTERN MISSOURI...

CITY           SKY/WX    TMP DP  RH WIND       PRES   REMARKS
KANSAS CTY INT CLEAR     63  56  78 S17       29.70F
KANSAS C DTWN  CLEAR     65  56  72 SE12      29.71F
LEE`S SUMMIT   CLEAR     61  55  81 SE13G21   29.74S
ST JOSEPH      CLEAR     65  53  65 S16       29.67S
CHILLICOTHE      N/A     63  53  70 S12       29.76S
KIRKSVILLE     CLOUDY    63  52  67 S17       29.79R

$$
MOZ066>068-077>081-088>096-101>105-020300-
...SOUTHWEST MISSOURI...

CITY           SKY/WX    TMP DP  RH WIND       PRES   REMARKS
SPRINGFIELD    CLEAR     63  59  87 SE15      29.82R
JOPLIN         CLEAR     67  54  63 S10       29.77R

$$
MOZ032>034-039>042-045>050-055>058-069>072-020300-
...CENTRAL MISSOURI...

CITY           SKY/WX    TMP DP  RH WIND       PRES   REMARKS
COLUMBIA       CLOUDY    59  57  93 SE9       29.83R
JEFFERSON CITY TSTM      59  57  93 SE6       29.83R FOG
ROLLA          CLOUDY    59  53  80 SE10      29.83F
SEDALIA        PTCLDY    58  57  97 SE12      29.80R
WHITEMAN AFB   PTCLDY    59  57  94 S10       29.77S
WARRENSBURG    PTCLDY    59  54  82 SE14      29.77R
OSAGE BEACH    CLOUDY    59  54  82 SE3       29.82S

$$
MOZ051-052-059>065-020300-
...EAST CENTRAL MISSOURI...

CITY           SKY/WX    TMP DP  RH WIND       PRES   REMARKS
ST LOUIS INTL  CLOUDY    71  39  31 S13       29.87F
SPIRIT OF STL  CLOUDY    69  43  38 S8        29.86S
ST CHARLES     CLOUDY    68  41  37 S14       29.86S

$$
MOZ072>076-082>087-097>100-106>115-020300-
...SOUTH CENTRAL AND SOUTHEAST MISSOURI...

CITY           SKY/WX    TMP DP  RH WIND       PRES   REMARKS
CAPE GIRARDEAU CLOUDY    66  47  50 SE12      29.91F
FARMINGTON     CLOUDY    64  46  52 S10       29.92F
POPLAR BLUFF   MOCLDY    65  58  78 S10       29.92R
WEST PLAINS    MOCLDY    63  58  83 SE13      29.89R

$$



USA.gov is the U.S. government's official web portal to all federal, state and local government web resources and services.